Preview of NWS' New Version of Forecast
This preview is not operational and should not be used for support decisions.
Latest weather observations around

Huntsville, Huntsville International / Jones Field (KHSV)

Using English Units (Switch to International System of Units)
Date/ Time (CDT) Wind (mph) Vis. (mi) Weather Sky Cond. Temp (°F) Rel. Humidity Wind Chill (°F) Heat Index (°F) Pressure Precip. (in)
Air Dwpt 6 hour Altimeter (inHg) Sea level (inHg) 1 hr 3 hr 6 hr
Max Min
Jun 24 14:53 W 16 10 Mostly Cloudy SCT045 BKN230 92 66     43%   95 29.87 29.85      
Jun 24 13:53   10 Mostly Cloudy SCT036 BKN220 90 69     50%   95 29.87 29.84      
Jun 24 12:53   10 Mostly Cloudy BKN032 BKN190 BKN250 91 73     56%   100 29.86 29.83     0
Jun 24 11:53   10 Mostly Cloudy SCT026 SCT150 BKN250 86 75     70%   95 29.85 29.82 0    
Jun 24 10:53   10 Light Rain SCT026 BKN034 BKN150 OVC250 82 74     77%   88 29.85 29.83 0    
Jun 24 10:46   10 Light Rain BKN028 BKN150 OVC250 84 74     72%   91 29.85   0    
Jun 24 09:53 S 14 10 Light Rain FEW024 BKN045 OVC250 81 74     79%   86 29.87 29.84 0 0  
Jun 24 08:53 SSW 13 10 Cloudy FEW022 OVC250 81 74     79%   86 29.89 29.86      
Jun 24 08:41 SSW 11 10 Cloudy SCT022 OVC250 81 74     79%   86 29.9        
Jun 24 07:53   10 Cloudy BKN024 BKN041 OVC250 80 74     82%   85 29.9 29.88      
Jun 24 07:41 SSW 11 10 Cloudy SCT022 BKN040 OVC055 80 74     82%   85 29.91        
Jun 24 07:33 SSW 13 10 Cloudy BKN023 BKN032 OVC041 80 74     82%   85 29.91        
Jun 24 07:17 SSW 11 10 Cloudy SCT021 BKN034 OVC250 80 74     82%   85 29.91        
Jun 24 06:53 S 10 10 Mostly Cloudy FEW017 BKN027 BKN250 80 75     85%   85 29.9 29.87      
Jun 24 05:53 SSW 8 10 Cloudy OVC016 78 74     87%   80 29.89 29.86      
Jun 24 05:38 S 6 10 Mostly Cloudy BKN017 77 74     90%   79 29.89        
Jun 24 05:05 S 7 10 Partly Cloudy SCT018 77 73     88%   79 29.87        
Jun 24 04:53 S 8 10 Mostly Cloudy BKN018 77 73     88%   79 29.87 29.84      
Jun 24 04:34 SSE 6 10 Mostly Cloudy BKN018 77 73     88%   79 29.88        
Jun 24 03:53 SSE 5 10 Clear CLR 77 73     88%   79 29.89 29.86      
Jun 24 02:53 W 5 10 Mostly Clear FEW050 79 73     82%   82 29.89 29.86      
Jun 24 01:53 SSE 3 10 Mostly Clear FEW060 78 73     85%   80 29.91 29.89      
Jun 24 00:53 S 6 10 Mostly Cloudy BKN070 79 73     82%   82 29.94 29.91      
Jun 23 23:53 SSE 6 10 Partly Cloudy SCT075 80 74     82%   85 29.94 29.91      
Jun 23 22:53 S 7 10 Mostly Clear FEW075 80 74     82%   85 29.95 29.92      
Jun 23 21:53 SSE 7 10 Mostly Clear FEW075 81 74     79%   86 29.95 29.92      
Jun 23 20:53 S 8 10 Partly Cloudy FEW060 SCT250 83 74     74%   89 29.93 29.91      
Jun 23 19:53 S 8 10 Mostly Clear FEW050 FEW250 85 75     72%   93 29.93 29.91      
Jun 23 18:53 S 11 10 Partly Cloudy FEW046 FEW070 SCT250 88 75     66%   98 29.93 29.9      
Jun 23 17:53 S 13 10 Partly Cloudy SCT049 SCT250 90 74     59%   99 29.93 29.91      
Jun 23 16:53 S 14 10 Partly Cloudy SCT049 SCT250 91 73     56%   100 29.94 29.91      
Jun 23 15:53 SSW 14 10 Partly Cloudy SCT038 SCT250 91 72     54%   99 29.97 29.94      
Jun 23 14:53   10 Partly Cloudy SCT034 SCT250 91 75     60%   102 30 29.97      
Jun 23 13:53 SSW 9 10 Partly Cloudy SCT028 SCT250 90 77     66%   103 30.02 30      
Jun 23 12:58 SSW 9 10 Mostly Cloudy SCT026 SCT055 BKN250 87 77     72%   99 30.04        
Jun 23 12:53 WSW 6 10 Thunderstorms SCT026 SCT055 BKN200 87 77     72%   99 30.04 30.02 0   0
Jun 23 12:02 S 6 10 Thunderstorms SCT023 BKN250 87 77     72%   99 30.05        
Jun 23 11:53 SSW 7 10 Mostly Cloudy BKN023 BKN250 86 76     72%   96 30.06 30.03      
Jun 23 10:53 WSW 7 10 Cloudy OVC017 83 75     77%   90 30.07 30.05      
Jun 23 09:53 SW 10 10 Cloudy BKN019 OVC048 83 75     77%   90 30.08 30.05      
Jun 23 09:37 SSW 7 10 Mostly Cloudy BKN020 BKN050 82 74     77%   88 30.08        
Jun 23 08:53 SSW 8 10 Mostly Cloudy FEW015 FEW050 BKN250 81 72     74%   85 30.09 30.07      
Jun 23 07:53 SSE 7 10 Partly Cloudy FEW027 SCT250 76 70     82%   77 30.08 30.06      
Jun 23 07:42 SSE 5 10 Partly Cloudy FEW027 SCT250 76 70     82%   77 30.08        
Jun 23 07:18 SSE 3 10 Mostly Cloudy BKN027 BKN250 74 70     87%   75 30.07        
Jun 23 07:04 SE 3 10 Partly Cloudy SCT027 SCT250 73 70     90%   74 30.07        
Jun 23 06:53 SE 3 10 Mostly Cloudy BKN027 BKN200 72 70     93%   73 30.07 30.05      
Jun 23 06:45 SE 3 10 Cloudy BKN028 OVC210 72 70     93%   73 30.07        
Jun 23 05:53 Calm 10 Mostly Cloudy SCT033 SCT055 BKN210 71 69     93%   72 30.06 30.03      
Jun 23 04:53 E 5 10 Clear   71 68     90%   72 30.05 30.03      
Jun 23 03:53 E 5 10 Clear CLR 71 69     93%   72 30.05 30.03      
Jun 23 02:53 ESE 3 10 Clear CLR 71 69     93%   72 30.03 30.01      
Jun 23 01:53 E 5 10 Clear CLR 71 69     93%   72 30.03 30.01      
Jun 23 00:53 ENE 5 10 Clear CLR 73 69     87%   74 30.04 30.01     0
Jun 22 23:53 ENE 5 10 Cloudy OVC220 72 69     91%   73 30.02 29.99      
Jun 22 22:53 ESE 5 10 Cloudy OVC160 73 69     87%   74 29.97 29.94      
Jun 22 21:53 S 10 10 Cloudy FEW060 SCT150 OVC220 72 70     93%   73 29.96   0 0  
Jun 22 20:53 WSW 13 6 Light Rain and Fog/Mist SCT050 BKN090 OVC110 72 70     93%   73 30.09 30.06 0    
Jun 22 20:20 W 9 9 Light Rain FEW060 BKN110 73 69     87%   74 30.13   0    
Jun 22 20:06 NW 8 10 Light Rain FEW035 BKN044 BKN055 BKN130 74 69     85%   75 30.15   0    
Jun 22 19:53 N 10 10 Thunderstorms SCT035 BKN044 OVC110 75 68     79%   76 30.15 30.12 0    
Jun 22 19:32 NW 10 10 Thunderstorms SCT048 BKN060 BKN070 BKN130 76 68     76%   77 30.14        
Jun 22 18:53 N 13 10 Mostly Cloudy SCT048 SCT065 BKN080 BKN130 78 67     69%   79 30.09 30.07     0
Jun 22 17:53 WSW 6 10 Partly Cloudy FEW060 SCT200 SCT250 82 68     63%   85 30.05 30.03      
Jun 22 16:53 SW 11 10 Mostly Cloudy FEW048 BKN200 81 68     65%   84 30.06 30.04      
Jun 22 15:53   10 Mostly Cloudy FEW048 BKN200 79 70     74%   82 30.06 30.04 0 0  
Jun 22 14:53 WNW 7 10 Mostly Cloudy SCT046 BKN110 BKN160 77 67     71%   78 30.05 30.03 0    
Jun 22 14:38 N 6 10 Light Rain SCT045 BKN100 BKN200 76 68     76%   77 30.05   0    
Jun 22 14:05   10 Mostly Cloudy SCT037 BKN200 92 72     52%   100 30.05        
Jun 22 13:53 NW 9 10 Partly Cloudy SCT037 92 72     52%   100 30.05 30.02      
Jun 22 12:53 NW 6 10 Mostly Cloudy SCT031 BKN048 88 73     61%   96 30.08 30.05      
Jun 22 11:53 NW 9 10 Mostly Cloudy FEW026 BKN030 BKN042 86 74     67%   94 30.11 30.09      
Jun 22 11:32 NW 9 10 Cloudy SCT028 BKN037 OVC047 85 73     68%   92 30.11        
Jun 22 10:53 W 8 10 Cloudy BKN026 OVC030 85 73     68%   92 30.11 30.09      
Jun 22 09:53 WSW 9 10 Mostly Cloudy SCT160 BKN190 84 71     65%   89 30.1 30.07      
Jun 22 08:53 SW 7 10 Mostly Cloudy FEW160 BKN180 81 69     67%   84 30.08 30.06      
Jun 22 07:53 SW 7 10 Mostly Cloudy BKN170 78 68     71%   79 30.08 30.06      
Jun 22 06:53 Calm 10 Mostly Cloudy BKN170 74 67     79%   75 30.05 30.03      
Jun 22 05:53 S 6 10 Mostly Cloudy BKN170 73 66     79%   74 30.02 29.99      
Jun 22 04:53 WSW 5 10 Clear CLR 72 66     82%   73 30 29.98      
Jun 22 03:53 SE 6 10 Clear CLR 72 66     82%   73 29.98 29.95      
Jun 22 02:53 S 9 10 Clear CLR 73 66     79%   74 29.99 29.96      
Jun 22 01:53 SSE 15 10 Clear CLR 74 66     76%   75 29.99 29.96      
Jun 22 00:53 SSE 8 10 Clear CLR 72 67     84%   73 30.02 29.99     0
Jun 21 23:53 E 9 10 Partly Cloudy SCT160 72 67     84%   73 30.07 30.04      
Jun 21 22:53 NE 16 10 Partly Cloudy FEW070 SCT100 72 67     84%   73 30.09 30.07 0    
Jun 21 22:45   10 Light Rain FEW055 SCT070 BKN090 72 68     87%   73 30.1   0    
Jun 21 22:34   10 Light Rain FEW032 BKN042 OVC095 72 67     84%   73 30.09   0    
Jun 21 22:21   10 Light Rain FEW032 BKN042 OVC060 76 66     71%   77 30.1   0    
Jun 21 21:53 WNW 11 10 Mostly Cloudy SCT055 BKN250 86 75     70%   95 30.04 30.01      
Jun 21 20:53 WSW 11 10 Mostly Cloudy SCT050 BKN250 88 74     63%   97 29.97 29.95      
Jun 21 19:53 SW 10 10 Mostly Cloudy FEW065 BKN250 89 73     59%   97 29.95 29.93      
Jun 21 18:53 SW 15 10 Partly Cloudy FEW065 SCT250 93 73     52%   102 29.94 29.91      
Jun 21 17:53 WSW 13 10 Partly Cloudy FEW055 SCT080 SCT250 94 73     51%   103 29.94 29.92      
May 15 04:53 Calm 10 Mostly Cloudy BKN065 70 68     93%     29.98 29.96      
May 14 10:53 N 8 10 Mostly Clear FEW050 88 64     45%   89 30.07 30.04      
May 11 20:53 S 8 10 Clear CLR 75 60     60%   75 30.05 30.03      
May 11 16:53 SW 11 10 Mostly Clear FEW090 89 57     34%   88 30.04 30.01      
Jun 12 04:53 SE 7 10 Partly Cloudy SCT025 72 70     93%   73 30.13 30.1      
Jun 11 22:53 ESE 3 10 Clear CLR 78 70     76%   79 30.12 30.09      
Jun 10 17:53 S 10 10 Partly Cloudy FEW060 SCT 85 61     45%   85 30.03 30.01      
Jun 09 19:53 W 3 10 Mostly Clear FEW080 77 60     56%   77   29.92      
Jun 08 19:53 NNW 6 10 Partly Cloudy SCT250 73 56     55%   73 29.89 29.87      
Jun 07 10:53 NE 17 10 Mostly Clear FEW050 FEW250 78 53     42%   78 29.89 29.87